GW4020 Weather Reports


time (UTC)temp
C
wind
direction
speed
KPH
gust
KPH
rain 1hr
cm
rain 24hr
cm
rain mn
cm
humidity
%
barometer
mb
20260504204839 19 264 6.4 11.3 0.00 0.00 0.00 43 1008.1
20260504204337 20 348 1.6 4.8 0.00 0.00 0.00 43 1008.1
20260504203836 20 293 6.4 11.3 0.00 0.00 0.00 42 1008.1
20260504203333 20 332 6.4 9.7 0.00 0.00 0.00 42 1008.3
20260504202828 20 8 3.2 3.2 0.00 0.00 0.00 42 1008.0
20260504202326 20 282 6.4 9.7 0.00 0.00 0.00 43 1008.2
20260504201822 20 346 4.8 4.8 0.00 0.00 0.00 43 1008.3
20260504201320 20 328 1.6 3.2 0.00 0.00 0.00 42 1008.6
20260504200817 20 344 9.7 11.3 0.00 0.00 0.00 44 1008.6
20260504200314 18 4 4.8 9.7 0.00 0.00 0.00 44 1008.4
20260504195810 18 246 8.0 11.3 0.00 0.00 0.00 43 1008.7
20260504195306 19 273 3.2 6.4 0.00 0.00 0.00 43 1008.7
20260504194803 20 293 4.8 4.8 0.00 0.00 0.00 43 1008.7
20260504194259 20 340 4.8 6.4 0.00 0.00 0.00 42 1008.6
20260504193755 20 184 3.2 6.4 0.00 0.00 0.00 42 1008.7
20260504193252 20 22 4.8 9.7 0.00 0.00 0.00 41 1009.0
20260504192751 20 342 3.2 6.4 0.00 0.00 0.00 43 1008.8
20260504192249 19 264 4.8 4.8 0.00 0.00 0.00 44 1009.0
20260504191747 19 286 3.2 3.2 0.00 0.00 0.00 44 1009.0
20260504191243 19 274 3.2 12.9 0.00 0.00 0.00 43 1009.0
20260504190739 19 281 6.4 6.4 0.00 0.00 0.00 44 1009.2
20260504190236 18 21 1.6 3.2 0.00 0.00 0.00 45 1009.2
20260504185732 18 295 3.2 4.8 0.00 0.00 0.00 45 1009.1
20260504185229 20 343 6.4 12.9 0.00 0.00 0.00 44 1009.0
20260504184725 20 308 3.2 3.2 0.00 0.00 0.00 44 1009.3
20260504184221 18 88 6.4 9.7 0.00 0.00 0.00 46 1009.4
20260504183717 18 338 4.8 6.4 0.00 0.00 0.00 46 1009.6
20260504183215 19 271 8.0 9.7 0.00 0.00 0.00 45 1009.4
20260504182713 18 268 6.4 9.7 0.00 0.00 0.00 45 1009.4
20260504182210 18 325 8.0 11.3 0.00 0.00 0.00 48 1009.6
20260504181707 18 294 8.0 11.3 0.00 0.00 0.00 46 1009.6
20260504181204 17 345 6.4 9.7 0.00 0.00 0.00 45 1009.6
20260504180703 18 23 3.2 3.2 0.00 0.00 0.00 44 1009.7
20260504180202 17 280 1.6 3.2 0.00 0.00 0.00 46 1009.7
20260504175658 17 356 6.4 6.4 0.00 0.00 0.00 46 1009.7
20260504175155 17 238 12.9 17.7 0.00 0.00 0.00 44 1009.9
20260504174653 18 286 9.7 12.9 0.00 0.00 0.00 45 1009.8
20260504174150 18 24 6.4 9.7 0.00 0.00 0.00 43 1009.8
20260504173647 17 359 3.2 4.8 0.00 0.00 0.00 47 1009.8
20260504173144 17 326 6.4 9.7 0.00 0.00 0.00 47 1009.8
20260504172640 18 250 12.9 16.1 0.00 0.00 0.00 45 1009.8
20260504172137 17 330 8.0 9.7 0.00 0.00 0.00 45 1009.8
20260504171633 17 327 3.2 4.8 0.00 0.00 0.00 45 1009.9
20260504171131 18 6 1.6 1.6 0.00 0.00 0.00 45 1010.0
20260504170627 17 319 1.6 1.6 0.00 0.00 0.00 48 1009.8
20260504170125 17 189 6.4 6.4 0.00 0.00 0.00 48 1010.0
20260504151009 15 280 9.7 14.5 0.00 0.00 0.00 48 1011.2
20260504150507 15 305 9.7 12.9 0.00 0.00 0.00 49 1011.5
20260504140927 12 10 4.8 6.4 0.00 0.00 0.00 47 1011.7
20260504140424 13 287 4.8 6.4 0.00 0.00 0.00 48 1011.7
20260504130349 12 80 4.8 6.4 0.00 0.00 0.00 47 1012.1
20260504120311 9 333 3.2 4.8 0.00 0.00 0.00 53 1012.1
20260504110235 5 349 0.0 0.0 0.00 0.00 0.00 68 1012.0
20260504100159 2 8 0.0 0.0 0.00 0.00 0.00 82 1011.8
20260504090122 0 351 0.0 0.0 0.00 0.00 0.00 93 1012.0
20260504081552 0 351 0.0 0.0 0.00 0.00 0.00 94 1012.3
20260504081048 0 351 0.0 0.0 0.00 0.00 0.00 95 1012.1
20260504080545 -1 351 0.0 0.0 0.00 0.00 0.00 94 1012.6
20260504050352 0 351 0.0 0.0 0.00 0.00 0.00 90 1012.3
20260504045849 0 351 0.0 0.0 0.00 0.00 0.00 90 1012.5
20260504045343 0 351 0.0 0.0 0.00 0.00 0.00 89 1012.5
20260504044841 0 351 0.0 0.0 0.00 0.00 0.00 89 1012.5
20260504044339 0 351 0.0 0.0 0.00 0.00 0.00 89 1012.5
20260504043836 0 351 0.0 0.0 0.00 0.00 0.00 89 1012.7
20260504043332 0 351 0.0 0.0 0.00 0.00 0.00 89 1012.6
20260504042830 0 351 0.0 0.0 0.00 0.00 0.00 89 1012.6
20260504042326 0 351 0.0 0.0 0.00 0.00 0.00 89 1012.5
20260504041822 0 351 0.0 0.0 0.00 0.00 0.00 89 1012.5
20260504041318 0 351 0.0 0.0 0.00 0.00 0.00 89 1012.5
20260504040814 0 351 0.0 0.0 0.00 0.00 0.00 89 1012.3
20260504040312 0 351 0.0 0.0 0.00 0.00 0.00 89 1012.5
20260504035808 0 351 0.0 0.0 0.00 0.00 0.00 88 1012.6
20260504035305 0 351 0.0 0.0 0.00 0.00 0.00 88 1012.8
20260504034802 0 351 0.0 0.0 0.00 0.00 0.00 87 1012.5
20260504034300 0 351 0.0 0.0 0.00 0.00 0.00 86 1012.6
20260504033757 0 351 0.0 0.0 0.00 0.00 0.00 86 1012.5
20260504033255 0 351 0.0 0.0 0.00 0.00 0.00 86 1012.7
20260504032752 0 351 0.0 0.0 0.00 0.00 0.00 86 1012.7
20260504032249 0 351 0.0 0.0 0.00 0.00 0.00 86 1012.6
20260504031745 0 351 0.0 0.0 0.00 0.00 0.00 86 1012.7
20260504031243 1 351 0.0 0.0 0.00 0.00 0.00 85 1012.7
20260504030738 1 351 0.0 0.0 0.00 0.00 0.00 84 1012.6
20260504030236 1 351 0.0 0.0 0.00 0.00 0.00 84 1012.6
20260504025732 1 351 0.0 0.0 0.00 0.00 0.00 83 1012.7
20260504025229 1 351 0.0 0.0 0.00 0.00 0.00 83 1012.7
20260504024726 1 351 0.0 0.0 0.00 0.00 0.00 83 1012.7
20260504024222 1 351 0.0 0.0 0.00 0.00 0.00 81 1012.6
20260504023720 2 351 0.0 0.0 0.00 0.00 0.00 79 1012.7
20260504023215 2 351 0.0 0.0 0.00 0.00 0.00 79 1012.8
20260504022712 2 351 0.0 0.0 0.00 0.00 0.00 79 1012.6
20260504022208 2 351 0.0 0.0 0.00 0.00 0.00 78 1012.6
20260504021706 2 351 0.0 0.0 0.00 0.00 0.00 77 1012.6
20260504021202 2 351 0.0 0.0 0.00 0.00 0.00 76 1012.6
20260504020659 2 351 0.0 0.0 0.00 0.00 0.00 76 1012.7
20260504020155 2 351 0.0 0.0 0.00 0.00 0.00 75 1012.6
20260504015652 3 351 0.0 0.0 0.00 0.00 0.00 75 1012.7
20260504015148 3 351 0.0 0.0 0.00 0.00 0.00 75 1012.6
20260504014644 3 351 0.0 0.0 0.00 0.00 0.00 75 1012.5
20260504014141 3 350 0.0 0.0 0.00 0.00 0.00 75 1012.6
20260504013639 3 350 0.0 0.0 0.00 0.00 0.00 75 1012.3
20260504013136 3 351 0.0 0.0 0.00 0.00 0.00 75 1012.3
20260504012633 3 351 0.0 0.0 0.00 0.00 0.00 75 1012.5
20260504012131 4 351 0.0 0.0 0.00 0.00 0.00 72 1012.3
20260504011627 5 351 0.0 0.0 0.00 0.00 0.00 70 1012.3
20260504011124 5 351 0.0 0.0 0.00 0.00 0.00 70 1012.3
20260504010620 5 351 0.0 0.0 0.00 0.00 0.00 67 1012.1
20260504010116 5 351 0.0 0.0 0.00 0.00 0.00 66 1012.0
20260504005613 5 350 0.0 0.0 0.00 0.00 0.00 67 1012.0
20260504005110 6 350 0.0 0.0 0.00 0.00 0.00 64 1012.0
20260504004608 6 350 0.0 0.0 0.00 0.00 0.00 64 1012.0
20260504004105 6 349 0.0 0.0 0.00 0.00 0.00 62 1011.9
20260504003600 6 353 0.0 0.0 0.00 0.00 0.00 64 1011.8
20260504003057 6 353 0.0 0.0 0.00 0.00 0.00 63 1011.8
20260504002554 6 354 0.0 0.0 0.00 0.00 0.00 62 1011.6
20260504002052 7 355 0.0 0.0 0.00 0.00 0.00 60 1011.7
20260504001550 7 357 0.0 0.0 0.00 0.00 0.00 58 1011.6
20260504001045 7 358 0.0 0.0 0.00 0.00 0.00 57 1011.6
20260504000543 8 355 0.0 0.0 0.00 0.00 0.00 57 1011.6
20260504000040 9 329 0.0 0.0 0.00 0.00 0.00 55 1011.6
20260503235538 10 354 0.0 0.0 0.00 0.00 0.00 53 1011.3
20260503235035 10 321 1.6 3.2 0.00 0.00 0.00 49 1011.5
20260503234532 10 301 1.6 3.2 0.00 0.00 0.00 47 1011.4
20260503234031 10 239 6.4 6.4 0.00 0.00 0.00 44 1011.4
20260503233527 10 297 3.2 3.2 0.00 0.00 0.00 45 1011.5
20260503233023 11 325 3.2 3.2 0.00 0.00 0.00 45 1011.3
20260503232520 11 282 3.2 3.2 0.00 0.00 0.00 44 1011.4
20260503232017 11 310 3.2 3.2 0.00 0.00 0.00 44 1011.3
20260503231515 11 337 0.0 1.6 0.00 0.00 0.00 46 1011.3
20260503231012 11 336 4.8 4.8 0.00 0.00 0.00 43 1011.4
20260503230508 11 311 1.6 3.2 0.00 0.00 0.00 44 1011.3
20260503230006 11 281 6.4 6.4 0.00 0.00 0.00 43 1011.1
20260503225503 11 301 3.2 3.2 0.00 0.00 0.00 43 1011.3
20260503224958 11 325 8.0 12.9 0.00 0.00 0.00 43 1011.2
20260503224455 11 284 4.8 6.4 0.00 0.00 0.00 42 1011.2
20260503223953 11 307 3.2 3.2 0.00 0.00 0.00 43 1011.0
20260503223451 11 250 4.8 4.8 0.00 0.00 0.00 43 1011.3
20260503222946 11 325 0.0 1.6 0.00 0.00 0.00 46 1011.2
20260503222445 11 353 4.8 4.8 0.00 0.00 0.00 44 1011.2
20260503221942 11 344 6.4 9.7 0.00 0.00 0.00 44 1011.3
20260503221440 11 331 6.4 9.7 0.00 0.00 0.00 44 1011.2
20260503220937 11 296 3.2 4.8 0.00 0.00 0.00 42 1011.3
20260503220433 11 312 3.2 3.2 0.00 0.00 0.00 43 1011.4
20260503215931 11 265 6.4 6.4 0.00 0.00 0.00 44 1011.4
20260503215427 11 240 3.2 4.8 0.00 0.00 0.00 44 1011.4
20260503214925 11 331 4.8 9.7 0.00 0.00 0.00 46 1011.4
20260503214423 11 335 4.8 6.4 0.00 0.00 0.00 45 1011.4
20260503213920 11 323 4.8 6.4 0.00 0.00 0.00 43 1011.3
20260503213418 11 352 6.4 9.7 0.00 0.00 0.00 44 1011.2
20260503212914 11 295 4.8 6.4 0.00 0.00 0.00 43 1011.1
20260503212412 11 341 8.0 11.3 0.00 0.00 0.00 42 1011.2
20260503211909 11 328 17.7 22.5 0.00 0.00 0.00 43 1011.1
20260503211405 11 310 12.9 20.9 0.00 0.00 0.00 43 1011.2
20260503210901 11 342 9.7 11.3 0.00 0.00 0.00 43 1010.8
20260503210358 11 337 8.0 9.7 0.00 0.00 0.00 43 1011.2
20260503205853 11 296 3.2 4.8 0.00 0.00 0.00 44 1011.2
20260503205350 11 313 11.3 14.5 0.00 0.00 0.00 43 1011.1